When you browse on this site, cookies collect data to enhance your experience and personalize the content and advertising you see.
Visit our Privacy Policy to learn more. By continuing to use the site, you agree to this use of cookies and data.
  • Em Portugal
  • Lista de países
  • Para 7 dias
  • Temperatura da água
  • Mapas de satélite
  • Mapa do tempo
  • Widgets de tempo
  • user-avatar
    Iniciar Sessão

    Previsão horária em Babruysk

    Hoje, 25 Maio, Sábado

    Tempo Temperatura Precipitação Vento Pressão Humidade
    00:00 +16°C° 0 mm 1 m/s 742 mmHg 90%
    01:00 +14°C° 0 mm 0 m/s 742 mmHg 90%
    02:00 +15°C° 0 mm 1 m/s 742 mmHg 92%
    03:00 +15°C° 0 mm 1 m/s 742 mmHg 93%
    04:00 +15°C° 0 mm 1 m/s 742 mmHg 94%
    05:00 +14°C° 0 mm 1 m/s 742 mmHg 95%
    06:00 +16°C° 0 mm 2 m/s 742 mmHg 90%
    07:00 +18°C° 0 mm 2 m/s 742 mmHg 85%
    08:00 +19°C° 0 mm 2 m/s 742 mmHg 81%
    09:00 +21°C° 0 mm 3 m/s 742 mmHg 73%
    10:00 +22°C° 0 mm 3 m/s 742 mmHg 65%
    11:00 +24°C° 0 mm 3 m/s 742 mmHg 57%
    12:00 +24°C° 0.5 mm 3 m/s 742 mmHg 59%
    13:00 +24°C° 0.5 mm 3 m/s 741 mmHg 60%
    14:00 +24°C° 0.5 mm 3 m/s 741 mmHg 61%
    15:00 +24°C° 0.6 mm 3 m/s 741 mmHg 63%
    16:00 +22°C° 0.6 mm 4 m/s 741 mmHg 66%
    17:00 +22°C° 0.6 mm 4 m/s 741 mmHg 68%
    18:00 +20°C° 0 mm 3 m/s 741 mmHg 73%
    19:00 +19°C° 0 mm 2 m/s 741 mmHg 78%
    20:00 +17°C° 0 mm 2 m/s 741 mmHg 83%
    21:00 +16°C° 0 mm 2 m/s 742 mmHg 84%
    22:00 +15°C° 0 mm 2 m/s 742 mmHg 85%
    23:00 +14°C° 0 mm 2 m/s 742 mmHg 86%

    Amanhã, 26 Maio, Domingo

    Tempo Temperatura Precipitação Vento Pressão Humidade
    00:00 +14°C° 0 mm 2 m/s 742 mmHg 88%
    01:00 +13°C° 0 mm 2 m/s 742 mmHg 90%
    02:00 +13°C° 0 mm 2 m/s 743 mmHg 92%
    03:00 +12°C° 0 mm 2 m/s 743 mmHg 92%
    04:00 +12°C° 0 mm 2 m/s 743 mmHg 92%
    05:00 +12°C° 0 mm 2 m/s 743 mmHg 93%
    06:00 +13°C° 0 mm 2 m/s 743 mmHg 84%
    07:00 +13°C° 0 mm 3 m/s 744 mmHg 75%
    08:00 +16°C° 0 mm 3 m/s 744 mmHg 66%
    09:00 +17°C° 0 mm 4 m/s 744 mmHg 60%
    10:00 +18°C° 0 mm 4 m/s 744 mmHg 54%
    11:00 +19°C° 0 mm 4 m/s 744 mmHg 49%
    12:00 +19°C° 0 mm 5 m/s 744 mmHg 48%
    13:00 +20°C° 0 mm 5 m/s 744 mmHg 48%
    14:00 +21°C° 0 mm 5 m/s 743 mmHg 48%
    15:00 +20°C° 0 mm 5 m/s 743 mmHg 50%
    16:00 +20°C° 0 mm 5 m/s 743 mmHg 53%
    17:00 +20°C° 0 mm 5 m/s 743 mmHg 55%
    18:00 +19°C° 0 mm 4 m/s 743 mmHg 62%
    19:00 +17°C° 0 mm 3 m/s 743 mmHg 68%
    20:00 +15°C° 0 mm 2 m/s 743 mmHg 75%
    21:00 +15°C° 0 mm 2 m/s 743 mmHg 79%
    22:00 +14°C° 0 mm 2 m/s 744 mmHg 83%
    23:00 +13°C° 0 mm 2 m/s 744 mmHg 87%

    Depois de amanhã, 27 Maio, Segunda-feira

    Tempo Temperatura Precipitação Vento Pressão Humidade
    00:00 +12°C° 0 mm 2 m/s 744 mmHg 89%
    01:00 +12°C° 0 mm 2 m/s 744 mmHg 91%
    02:00 +10°C° 0 mm 2 m/s 744 mmHg 93%
    03:00 +10°C° 0 mm 2 m/s 745 mmHg 92%
    04:00 +10°C° 0 mm 2 m/s 745 mmHg 91%
    05:00 +10°C° 0 mm 2 m/s 745 mmHg 90%
    06:00 +12°C° 0 mm 3 m/s 745 mmHg 83%
    07:00 +14°C° 0 mm 4 m/s 745 mmHg 76%
    08:00 +17°C° 0 mm 4 m/s 745 mmHg 69%
    09:00 +18°C° 0 mm 4 m/s 745 mmHg 67%
    10:00 +19°C° 0 mm 5 m/s 746 mmHg 64%
    11:00 +20°C° 0 mm 5 m/s 746 mmHg 62%
    12:00 +21°C° 0.4 mm 5 m/s 745 mmHg 63%
    13:00 +22°C° 0.4 mm 5 m/s 745 mmHg 65%
    14:00 +22°C° 0.4 mm 5 m/s 745 mmHg 66%
    15:00 +23°C° 0.3 mm 4 m/s 745 mmHg 65%
    16:00 +23°C° 0.3 mm 4 m/s 745 mmHg 65%
    17:00 +23°C° 0.3 mm 4 m/s 745 mmHg 64%
    18:00 +21°C° 0.1 mm 3 m/s 745 mmHg 70%
    19:00 +20°C° 0.1 mm 2 m/s 745 mmHg 77%
    20:00 +18°C° 0.1 mm 2 m/s 745 mmHg 83%
    21:00 +18°C° 0 mm 2 m/s 745 mmHg 85%
    22:00 +17°C° 0 mm 2 m/s 745 mmHg 88%
    23:00 +16°C° 0 mm 2 m/s 745 mmHg 91%

    28 Maio, Terça-feira

    Tempo Temperatura Precipitação Vento Pressão Humidade
    00:00 +16°C° 0 mm 2 m/s 745 mmHg 92%
    01:00 +16°C° 0 mm 2 m/s 745 mmHg 94%
    02:00 +16°C° 0 mm 2 m/s 746 mmHg 95%
    03:00 +16°C° 0 mm 2 m/s 746 mmHg 95%
    04:00 +16°C° 0 mm 2 m/s 746 mmHg 95%
    05:00 +16°C° 0 mm 2 m/s 746 mmHg 95%
    06:00 +18°C° 0 mm 2 m/s 746 mmHg 88%
    07:00 +20°C° 0 mm 3 m/s 746 mmHg 82%
    08:00 +22°C° 0 mm 3 m/s 746 mmHg 75%
    09:00 +24°C° 0.1 mm 3 m/s 746 mmHg 69%
    10:00 +26°C° 0.1 mm 4 m/s 745 mmHg 63%
    11:00 +28°C° 0.1 mm 4 m/s 745 mmHg 56%
    12:00 +27°C° 1.3 mm 4 m/s 745 mmHg 62%
    13:00 +27°C° 1.3 mm 4 m/s 745 mmHg 67%
    14:00 +26°C° 1.3 mm 4 m/s 745 mmHg 73%
    15:00 +26°C° 1.3 mm 4 m/s 744 mmHg 74%
    16:00 +26°C° 1.3 mm 3 m/s 744 mmHg 75%
    17:00 +26°C° 1.3 mm 3 m/s 744 mmHg 76%
    18:00 +24°C° 0.2 mm 3 m/s 744 mmHg 77%
    19:00 +22°C° 0.2 mm 4 m/s 744 mmHg 78%
    20:00 +21°C° 0.2 mm 4 m/s 744 mmHg 79%
    21:00 +20°C° 0 mm 4 m/s 744 mmHg 81%
    22:00 +20°C° 0 mm 4 m/s 744 mmHg 83%
    23:00 +19°C° 0 mm 4 m/s 744 mmHg 84%

    29 Maio, Quarta-feira

    Tempo Temperatura Precipitação Vento Pressão Humidade
    00:00 +19°C° 0 mm 4 m/s 744 mmHg 84%
    01:00 +19°C° 0 mm 4 m/s 744 mmHg 84%
    02:00 +18°C° 0 mm 4 m/s 744 mmHg 84%
    03:00 +18°C° 0 mm 4 m/s 744 mmHg 83%
    04:00 +18°C° 0 mm 4 m/s 744 mmHg 82%
    05:00 +16°C° 0 mm 5 m/s 743 mmHg 82%
    06:00 +17°C° 0 mm 5 m/s 743 mmHg 75%
    07:00 +19°C° 0 mm 6 m/s 743 mmHg 68%
    08:00 +21°C° 0 mm 6 m/s 743 mmHg 62%
    09:00 +22°C° 0 mm 6 m/s 743 mmHg 61%
    10:00 +23°C° 0 mm 6 m/s 743 mmHg 60%
    11:00 +24°C° 0 mm 6 m/s 744 mmHg 59%
    12:00 +26°C° 0 mm 6 m/s 743 mmHg 58%
    13:00 +27°C° 0 mm 6 m/s 743 mmHg 56%
    14:00 +28°C° 0 mm 6 m/s 743 mmHg 55%
    15:00 +27°C° 0.3 mm 6 m/s 743 mmHg 61%
    16:00 +27°C° 0.3 mm 6 m/s 743 mmHg 66%
    17:00 +26°C° 0.3 mm 5 m/s 743 mmHg 72%
    18:00 +23°C° 1.2 mm 5 m/s 743 mmHg 77%
    19:00 +22°C° 1.2 mm 5 m/s 743 mmHg 81%
    20:00 +21°C° 1.2 mm 4 m/s 743 mmHg 86%
    21:00 +20°C° 1 mm 4 m/s 743 mmHg 89%
    22:00 +19°C° 1 mm 3 m/s 744 mmHg 92%
    23:00 +18°C° 1 mm 2 m/s 744 mmHg 95%

    30 Maio, Quinta-feira

    Tempo Temperatura Precipitação Vento Pressão Humidade
    00:00 +18°C° 0 mm 2 m/s 744 mmHg 96%
    01:00 +18°C° 0 mm 2 m/s 745 mmHg 96%
    02:00 +17°C° 0 mm 2 m/s 745 mmHg 97%
    03:00 +17°C° 0 mm 2 m/s 745 mmHg 97%
    04:00 +17°C° 0 mm 3 m/s 746 mmHg 96%
    05:00 +16°C° 0 mm 3 m/s 746 mmHg 96%
    06:00 +15°C° 0 mm 4 m/s 747 mmHg 94%
    07:00 +15°C° 0 mm 4 m/s 748 mmHg 92%
    08:00 +14°C° 0 mm 4 m/s 748 mmHg 89%
    09:00 +15°C° 0 mm 4 m/s 749 mmHg 83%
    10:00 +17°C° 0 mm 4 m/s 749 mmHg 77%
    11:00 +18°C° 0 mm 3 m/s 750 mmHg 71%
    12:00 +19°C° 0 mm 4 m/s 750 mmHg 65%
    13:00 +20°C° 0 mm 4 m/s 750 mmHg 58%
    14:00 +21°C° 0 mm 4 m/s 751 mmHg 51%
    15:00 +21°C° 0 mm 4 m/s 751 mmHg 50%
    16:00 +21°C° 0 mm 4 m/s 751 mmHg 49%
    17:00 +21°C° 0 mm 3 m/s 751 mmHg 48%
    18:00 +19°C° 0 mm 3 m/s 751 mmHg 54%
    19:00 +17°C° 0 mm 2 m/s 751 mmHg 60%
    20:00 +16°C° 0 mm 2 m/s 751 mmHg 66%
    21:00 +15°C° 0 mm 2 m/s 751 mmHg 67%
    22:00 +14°C° 0 mm 2 m/s 751 mmHg 69%
    23:00 +13°C° 0 mm 1 m/s 752 mmHg 70%
    Mostrar mais